COSMOS 2251 DEB, 35062

Orbit data source: Space-Track

COSMOS 2251 DEB, 35062 is space debris in LEO originally from a launch on Wed, 16 Jun 1993 UTC launched from the Plesetsk Missile And Space Complex (PKMTR). The debris from Iridium 33, an American commercial communications satellite, has been tracked extensively since its accidental collision with the defunct Russian satellite Cosmos 2251 in 2009. This event, occurring at high speed in low Earth orbit (LEO), generated thousands of pieces of space debris, significantly increasing the risk of further collisions. The Iridium 33 debris cloud has impacted space traffic management and orbital debris mitigation strategies, making it a subject of ongoing study in space situational awareness.

Loading next visibility...
Identifier
35062, 1993-036AHR
Orbit
LEO
Country
Flag of CISCIS
Related business
Manufacturer
Unknown
Mission
Spacecraft
Bus & Motor
Unknown
Mass
Unknown
Launch date (UTC)
1993-06-16 (33 years ago)
Launch vehicle
Unknown
Launch site
Plesetsk Missile And Space Complex (PKMTR)
Object type
Payload
Rocket body
Debris
Shape & HBR
Unknown shape, 0.1 m
Radar Cross Section
Small (<0.1 m²)

Expand to show TLE details & history
Last TLE update: 5 days ago

TLE from 5 days ago
0 COSMOS 2251 DEB
1 35062U 93036AHR 26032.58573365  .00007369  00000-0  29876-2 0  9991
2 35062  74.0812   2.0424 0126938 347.6118  12.1914 14.23538067862228
Epoch: 2026-02-01T14:03Z
TLE epoch observation values (Epoch: 2026-02-01T14:03:27.387Z)
Latitude
-0.00001°
Longitude
19.38503°
Altitude
726.82 km
Speed
7.538 km/s
True Right ascension
00h 08m 10s
True Declination
0° 00' 00"
Sunlit
Object was in daylight at epoch
Visualization orbit readout
Latitude
Unknown
Longitude
Unknown
Altitude
Unknown
Speed
Unknown
Apparent Right ascension
Unknown
Apparent Declination
Unknown
Sunlit
N/A
Visualization observer readout
Local Sidereal Time
09:27:53
Azimuth
Unknown
Elevation
Unknown
Doppler factor
Unknown
Orbital elements
Apogee altitude
902.304 km
Perigee altitude
719.788 km
Semi-major axis
7,189.183 km
Eccentricity
0.01269
Inclination
74.0812°
RAAN
2.0424°
Arg. of periapsis
347.6118°
True anomaly
12.50341°
Mean anomaly
12.1914°
Eccentric anomaly
12.34692°
Mean motion
3.56061 °/min
Orbital period
101.11 mins
BSTAR
0.0029876
Loading maneuver chart data...
Computing Atmospheric mass density...

Documentation

Showing up to 5 results
|